Погода в Пионерском

Россия / Камчатский край     53°05′23″N   158°33′03″E
темп.,
°C
ветер,
м/с
пор.,
м/с
влажн.,
%
обл.,
%
осадки,
мм/ч
давл.,
гПа
погр.,
м
25 февраля, чт
чт2500:00−11сз348785 0.3 99931
03:00−14сз457633 0.0 99938
06:00−15сз457217 0.0 99941
09:00−14сз447187 0.0 100054
12:00−10сз346988 0.0 1000186
15:00−6ссз236794 0.0 1000207
18:00−8вюв017697 0.0 100121
21:00−9зсз119498 0.1 100321
26 февраля, пт
пт2600:00−10ссз349499 0.5 100542
03:00−11сз3494100 0.2 100647
06:00−11сз4595100 0.7 1007103
09:00−10сз3495100 0.6 1009138
12:00−8сз3492100 1.3 1009204
15:00−6зсз2290100 0.8 1009219
18:00−6ююв1290100 1.2 100973
21:00−9ююз0183100 0.2 101122
27 февраля, сб
сб2700:00−9сз2395100 0.6 101250
03:00−10сз3392100 0.6 101275
06:00−11сз3390100 1.0 101259
09:00−11зсз2388100 0.4 101259
12:00−7сз1292100 3.0 1012220
15:00−6с2492100 3.0 1010404
18:00−5ссв479499 5.7 1009367
21:00−8зсз3493100 3.7 1009111
28 февраля, вс
вс2800:00−13сз4482100 4.0 100827
03:00−12сз6970100 0.0 1004151
06:00−13сз71171100 0.0 1002201
09:00−11сз81374100 0.1 1002338
12:00−8зсз81275100 0.3 1003467
15:00−5зсз6116795 0.0 1002612
18:00−8зсз577364 0.0 1002124
21:00−14зсз56780 0.0 100259
1 марта, пн
пн100:00−15сз577921 0.0 100275
03:00−14сз5680100 0.0 100178
06:00−14сз567897 0.0 100171
09:00−15сз467911 0.0 100264
12:00−8сз58776 0.0 1002384
15:00−4зсз7106712 0.0 10021012
18:00−6сз34717 0.0 100335
21:00−9сз237795 0.0 100421